Regional Weather Roundup
Issued by NWS

Home | Current Version | Previous Version | Text Only | Print | Product List | Glossary Off
Versions: 1 2 3 4 5 6 7 8 9 10 11 12 13 14 15 16 17 18 19 20 21 22 23 24 25 26 27 28 29 30 31 32 33 34 35 36 37 38 39 40 41 42 43 44 45 46 47 48 49 50

666
ASUS45 KCYS 091710
RWRWY

WYOMING REGIONAL WEATHER ROUNDUP
NATIONAL WEATHER SERVICE CHEYENNE WY
1000 AM MST TUE FEB 09 2016

NOTE:  "FAIR" INDICATES FEW OR NO CLOUDS BELOW 12,000 FEET
WITH NO SIGNIFICANT WEATHER AND/OR OBSTRUCTIONS TO VISIBILITY.

WYZ001-091800-
YELLOWSTONE NATIONAL PARK

CITY           SKY/WX    TMP DP  RH WIND       PRES   REMARKS
LK YELLOWSTONE   N/A     16  16 100 E3        30.57R
W YELLOWSTONE  NOT AVBL

$$
WYZ002>013-054>058-071-098>099-091800-
NORTHERN WYOMING

CITY           SKY/WX    TMP DP  RH WIND       PRES   REMARKS
JACKSON        MOSUNNY    9   7  92 CALM      30.60S
CODY           FAIR      41  25  52 CALM      30.35R
GREYBULL       FAIR      27  20  75 CALM      30.39S
WORLAND        FAIR      28  22  78 CALM      30.39R
SHERIDAN       SUNNY     52  27  37 N8        30.26S
BUFFALO          N/A     47  28  47 CALM      30.28F
GILLETTE       CLOUDY    42  30  62 W14       30.27S
HULETT         PTSUNNY   37  30  75 SW6       30.27R WCI  33
NEWCASTLE      FAIR      41  28  60 NW17G23   30.25R

$$
WYZ014>020-022>026-101>103-091800-
CENTRAL WYOMING

CITY           SKY/WX    TMP DP  RH WIND       PRES   REMARKS
BIG PINEY      FAIR      28  22  78 SW5       30.47S WCI  23
PINEDALE       FAIR      34  23  64 NW22G32   30.45S WCI  22
DUBOIS         FAIR      45  10  24 W23G30    30.41F
LANDER         FAIR      26  16  65 SE3       30.39F
RIVERTON       FAIR      20  16  84 CALM      30.41R
CASPER         FAIR      34  21  59 SW18G31   30.35S WCI  23
DOUGLAS        FAIR      40  25  55 NW16        N/A  WCI  31

$$
WYZ021-027>030-104>119-091800-
SOUTHERN WYOMING

CITY           SKY/WX    TMP DP  RH WIND       PRES   REMARKS
EVANSTON       FAIR      27  19  72 S9        30.54S WCI  18
FORT BRIDGER   SUNNY     36  25  64 W20       30.54S WCI  25
ROCK SPRINGS   FAIR      32  24  72 W18       30.48R WCI  20
DIXON          FAIR      19  12  73 CALM      30.55R
RAWLINS        FAIR      31  21  66 W18G26    30.45R WCI  19
SARATOGA       FAIR      21  14  73 S5        30.48R WCI  15
LARAMIE        FAIR      32  19  58 N7        30.37R WCI  26
CHEYENNE       FAIR      43  22  43 NW17G30   30.31S
TORRINGTON     FAIR      42  24  49 NW13      30.28R
PINE BLUFFS    FAIR      43  27  52 NW18G29   30.30R

$$




USA.gov is the U.S. government's official web portal to all federal, state and local government web resources and services.